This is the latest recevied weather packets stored in our database for station/object GW1482. If no packets are shown the sender has not sent any weather packets the latest 10 day(s).
| Time | Temp. | Humidity | Pressure | Rain* | Wind** | Luminosity | Snow |
|---|---|---|---|---|---|---|---|
| 1778035889 | 18.33° C | 50% | 996.6 hPa | 0 mm | - | - | - |
| 1778032311 | 17.22° C | 52% | 997.6 hPa | 0 mm | - | - | - |
| 1778024727 | 20° C | 44% | 996.9 hPa | 0 mm | - | - | - |
| 1778019674 | 22.22° C | 35% | 996.6 hPa | 0 mm | - | - | - |
| 1778018261 | 21.67° C | 34% | 997.6 hPa | 0 mm | - | - | - |
| 1778017909 | 22.22° C | 33% | 997.2 hPa | 0 mm | - | - | - |
| 1778017181 | 21.67° C | 35% | 997.6 hPa | 0 mm | - | - | - |
| 1778016462 | 22.22° C | 36% | 997.2 hPa | 0 mm | - | - | - |
| 1778011780 | 22.78° C | 37% | 997.6 hPa | 0 mm | - | - | - |
| 1778008172 | 22.22° C | 39% | 997.9 hPa | 0 mm | - | - | - |
| 1778007816 | 22.22° C | 39% | 997.9 hPa | 0 mm | - | - | - |
| 1778003485 | 21.67° C | 40% | 998.9 hPa | 0 mm | - | - | - |
| 1778003125 | 21.67° C | 40% | 998.6 hPa | 0 mm | - | - | - |
| 1778000979 | 21.11° C | 45% | 999.3 hPa | 0 mm | - | - | - |
| 1778000608 | 20.56° C | 46% | 999.3 hPa | 0 mm | - | - | - |
| 1777999512 | 20.56° C | 49% | 999.3 hPa | 0 mm | - | - | - |
| 1777998439 | 20° C | 49% | 1000 hPa | 0 mm | - | - | - |
| 1777998108 | 20° C | 49% | 1000 hPa | 0 mm | - | - | - |
| 1777997735 | 19.44° C | 50% | 999.6 hPa | 0 mm | - | - | - |
| 1777993411 | 18.89° C | 55% | 1000 hPa | 0 mm | - | - | - |
| 1777992708 | 18.33° C | 53% | 1000 hPa | 0 mm | - | - | - |
| 1777991952 | 18.33° C | 53% | 1000 hPa | 0 mm | - | - | - |
| 1777990542 | 17.78° C | 55% | 1000.3 hPa | 0 mm | - | - | - |
| 1777988373 | 17.78° C | 56% | 1000.6 hPa | 0 mm | - | - | - |
| 1777987651 | 17.22° C | 57% | 1000.6 hPa | 0 mm | - | - | - |
* Rain since midnight (hover to see other rain measurements)
** Current wind speed in m/s (hover to see current wind gust speed)